Wind_Speed
16 15 14 12 10 9 8 7 6 6 7 7 7 6 7 8 9 9 7 9 9 5 5 4 6 11 5 4 6 3 4 4 4 4 4 12 18 10 10 15 2 6 9 17 24
18 16 15 13 10 9 8 7 7 7 6 7 7 7 8 10 9 12 20 9 7 10 11 8 4 0 3 5 3 4 2 3 7 5 7 12 20 14 8 16 13 18 19 24 22
20 18 16 13 11 9 8 7 7 7 7 7 5 6 7 8 2 7 1 14 8 13 3 1 11 2 4 3 3 3 3 7 12 10 6 5 12 5 18 9 19 22 18 16 14
21 19 17 14 11 8 8 8 7 6 6 6 5 5 5 3 3 6 7 18 10 12 17 14 1 4 3 2 1 6 10 8 12 5 5 6 8 10 8 8 16 17 18 16 12
23 19 17 13 10 9 7 7 7 6 6 5 4 3 3 2 7 2 16 21 24 26 30 18 8 4 1 5 6 3 8 10 14 10 14 15 12 12 17 19 17 18 15 13 14
23 20 17 13 9 8 7 6 7 6 5 4 1 2 2 2 2 13 23 26 32 29 25 17 8 0 3 2 8 3 4 9 11 13 15 18 15 10 16 19 17 16 13 12 15
25 19 16 12 10 6 6 6 7 6 5 3 1 4 1 10 2 21 25 27 27 16 7 15 8 7 8 4 5 2 4 14 6 5 2 14 11 15 21 17 15 12 11 11 15
26 19 16 12 9 5 5 5 5 4 3 1 1 3 6 0 10 16 19 27 19 13 9 7 17 5 3 10 3 2 3 1 4 4 3 3 7 15 19 18 13 10 10 12 13
25 19 13 10 7 4 2 2 2 2 1 2 2 0 8 4 14 19 22 19 24 6 8 19 15 4 3 6 3 1 4 4 5 8 1 2 8 13 18 15 12 11 9 13 12
26 18 12 8 5 3 3 4 4 3 2 1 2 3 6 5 9 18 22 16 10 12 7 4 3 1 3 3 4 4 2 1 3 7 6 4 2 17 17 17 16 15 14 14 12
26 16 10 5 3 5 8 4 3 2 2 9 7 5 3 6 9 13 23 18 8 6 7 6 5 8 10 5 9 9 4 5 11 7 2 4 10 15 16 15 15 14 14 13 13
26 16 7 2 2 6 5 2 6 2 7 17 8 8 22 10 4 6 20 7 6 9 9 3 9 9 8 15 11 6 13 5 5 4 3 5 3 5 12 17 18 17 15 17 16
27 14 6 1 2 3 9 17 5 12 2 7 8 7 7 11 8 9 12 7 7 5 5 7 10 6 8 11 8 9 14 15 10 4 9 4 6 4 6 15 17 16 18 15 18
31 12 4 1 2 1 8 16 20 4 4 6 5 7 6 7 3 11 18 8 6 10 7 6 7 9 1 2 7 3 9 24 15 5 3 1 3 5 4 12 14 17 16 15 8
31 15 4 8 2 3 9 25 20 4 5 3 5 4 4 8 4 2 9 4 11 11 5 12 5 3 3 4 6 2 27 23 18 7 7 2 1 6 2 5 9 20 15 14 16
30 25 7 7 11 13 21 25 3 5 4 3 5 5 4 1 3 3 4 5 6 4 2 8 2 6 8 1 7 17 6 7 5 5 4 4 2 5 5 8 4 11 10 9 17
39 24 12 12 5 6 21 4 5 3 4 2 6 3 6 7 4 5 4 6 7 2 5 8 5 6 5 5 6 4 5 4 6 5 3 2 3 8 8 10 6 14 11 6 4
45 17 10 23 19 18 11 5 2 2 5 3 4 3 8 6 7 7 6 8 5 4 2 1 8 3 6 8 8 8 7 6 4 3 4 2 2 6 6 8 15 14 14 8 1
39 8 5 11 15 10 5 4 5 3 8 6 5 5 3 5 7 5 9 15 11 11 9 4 6 4 1 5 9 5 3 8 7 4 3 2 5 8 4 11 7 11 14 11 8
24 8 6 4 15 13 4 5 5 5 7 8 2 4 5 6 5 7 6 7 7 12 8 8 5 3 4 2 1 3 11 5 4 5 3 3 4 5 3 4 5 9 12 14 11
8 4 5 16 14 5 2 6 6 8 2 1 3 2 1 4 6 7 11 10 12 10 9 5 4 9 4 2 2 4 1 5 5 5 5 1 5 8 8 6 11 10 9 12 6
9 3 10 21 3 1 1 3 6 8 9 6 2 3 3 1 3 4 6 4 5 14 10 6 6 4 9 5 7 6 8 5 5 5 2 4 5 3 5 6 7 9 10 11 9
4 3 5 12 2 2 5 5 3 13 11 8 3 2 1 2 3 2 6 3 10 7 10 8 1 2 9 7 6 4 3 3 6 4 5 7 6 3 2 4 11 11 8 9 6
2 4 4 4 1 1 3 3 6 14 7 11 9 6 4 0 1 1 9 3 10 5 9 8 4 7 6 7 3 4 5 3 4 3 7 6 5 4 2 7 8 8 10 9 8
2 3 1 4 4 5 1 6 13 12 6 8 10 4 3 1 4 2 0 5 4 5 0 4 6 2 3 6 1 2 4 3 7 7 6 9 12 8 9 10 10 9 10 11 8
3 4 5 4 7 6 2 3 4 1 7 22 14 24 3 4 7 7 5 4 1 7 5 7 2 1 2 6 5 2 8 13 4 8 9 10 5 5 3 4 8 9 8 9 9
11 9 1 5 5 4 2 1 4 7 11 17 28 5 6 6 9 9 6 1 5 5 6 3 4 3 4 7 5 6 8 7 5 5 15 11 9 7 5 11 15 11 13 10 10
Wind_Direction
342 336 328 320 313 303 295 291 287 290 292 298 298 303 315 314 305 278 246 227 216 171 188 162 203 249 319 22 9 63 30 325 295 130 164 113 112 100 94 130 42 197 138 145 150
344 336 327 321 313 306 297 289 281 283 284 291 301 314 327 325 314 257 250 229 251 188 182 190 262 297 39 25 38 61 49 286 279 142 150 132 130 131 106 95 97 98 108 133 151
343 336 328 320 315 311 300 288 275 279 288 293 302 319 333 338 327 252 223 185 154 174 81 107 48 39 57 59 341 76 277 300 348 37 134 122 120 97 120 125 149 143 142 143 155
343 336 328 320 312 304 297 289 274 268 278 289 310 330 341 6 40 345 124 157 127 87 56 46 26 87 97 28 89 332 332 285 300 321 95 99 108 123 119 148 148 138 139 149 166
343 336 327 320 312 307 290 286 275 264 267 281 317 356 58 45 253 97 123 127 107 86 65 34 7 51 111 101 359 129 337 342 337 83 98 95 95 99 115 130 136 138 148 163 181
345 336 328 321 312 303 291 273 264 255 253 265 321 57 74 318 296 160 128 126 120 110 90 115 251 31 24 38 120 267 133 312 322 325 98 111 121 109 129 137 142 151 163 178 194
346 338 331 323 315 295 279 262 250 242 239 241 176 91 94 232 355 155 132 136 132 120 133 157 123 81 19 303 167 284 82 337 321 311 36 89 93 122 140 142 150 171 177 193 211
349 340 333 327 316 296 270 249 240 235 234 239 156 121 241 172 211 168 144 149 164 167 135 100 122 102 177 320 81 131 77 291 294 316 347 52 158 143 150 149 164 185 193 199 218
352 345 338 328 323 316 285 210 220 195 170 110 69 5 266 342 164 185 171 172 180 123 69 102 121 137 123 223 60 165 110 227 332 332 303 9 145 168 158 163 169 185 202 206 230
355 347 343 338 343 31 111 123 112 109 103 81 272 350 268 195 172 190 193 192 142 118 62 59 41 122 253 149 149 324 207 58 48 331 347 356 202 168 168 173 176 191 202 213 219
358 347 345 351 34 117 130 118 31 2 214 200 191 230 271 205 172 197 195 208 179 146 139 208 193 209 214 165 144 171 160 10 342 312 340 318 140 174 183 191 188 194 201 211 221
359 351 346 29 116 164 180 186 203 76 295 226 224 259 273 298 326 230 193 169 183 219 115 113 237 230 199 182 184 158 116 67 305 296 210 53 8 300 206 204 202 192 207 209 220
1 354 348 37 146 207 248 248 196 327 241 276 191 210 228 154 208 236 149 191 205 230 207 191 252 169 205 175 173 179 180 162 186 163 28 93 321 259 278 218 215 202 207 208 205
3 353 335 170 140 280 257 327 331 267 36 277 182 259 193 184 213 211 186 157 221 220 250 223 263 196 172 328 152 294 158 160 167 139 170 332 280 270 210 224 209 209 200 203 211
0 346 289 218 279 230 302 319 322 150 4 242 187 266 109 142 169 239 183 98 218 239 81 267 300 134 246 229 116 230 154 165 156 134 128 334 351 279 78 247 210 203 202 201 202
354 347 277 244 254 269 323 333 18 48 271 284 153 199 121 2 244 271 154 174 222 240 202 253 231 164 180 9 134 157 145 134 150 150 61 264 107 287 199 228 188 204 206 221 200
346 328 250 210 233 240 332 20 40 137 319 228 201 174 171 213 245 185 178 161 187 73 296 306 252 164 119 80 102 170 37 22 4 19 221 227 71 240 221 248 185 147 124 53 35
343 323 242 234 247 269 336 43 15 290 274 298 198 118 177 177 232 210 153 199 275 151 118 176 315 182 178 177 191 198 156 142 140 311 272 330 257 273 328 320 145 155 177 137 35
344 351 262 272 234 240 64 73 220 278 305 276 95 135 256 245 196 135 202 198 196 189 159 185 259 311 334 179 142 184 101 133 102 354 359 338 301 307 14 59 107 172 172 181 181
339 328 263 190 147 130 77 230 241 221 327 21 112 160 210 237 176 150 197 209 217 203 154 224 272 271 249 48 71 154 156 100 35 138 222 291 275 231 317 116 156 169 200 206 198
347 8 349 158 132 62 164 238 272 264 100 180 262 31 51 106 228 216 213 237 203 213 177 138 132 280 16 68 186 352 205 68 117 149 148 165 263 204 221 205 187 194 197 213 204
354 345 150 156 48 53 166 240 311 305 21 227 231 141 131 45 25 323 228 226 315 196 168 176 146 199 231 248 209 183 200 144 142 217 148 120 272 233 174 225 166 188 192 208 214
341 268 332 209 240 295 299 303 275 18 332 324 273 50 194 34 15 87 310 308 334 129 158 188 161 20 344 347 7 126 159 156 142 60 195 142 249 297 306 321 170 162 182 219 230
21 339 319 32 77 128 356 321 350 354 322 2 288 67 69 80 292 256 353 343 333 28 138 105 145 156 196 217 224 351 349 6 111 112 170 211 182 288 258 179 137 147 175 183 198
134 269 20 310 322 347 308 339 57 5 327 351 315 256 178 168 354 360 150 307 328 39 282 106 163 93 252 237 276 356 328 283 202 176 172 183 177 196 176 153 143 135 122 126 153
18 19 344 286 290 332 82 207 98 47 243 286 283 277 176 160 195 220 164 234 243 350 57 349 147 142 285 343 42 186 357 345 162 96 126 155 142 144 182 114 131 135 129 134 145
347 343 97 274 321 334 260 273 220 187 281 246 252 174 205 217 207 223 206 276 127 97 4 43 116 62 276 335 16 19 330 344 68 74 135 164 182 147 173 166 158 150 146 143 129
Height
795 793 791 789 788 788 787 787 786 786 786 785 785 785 785 786 785 785 783 777 780 784 786 788 789 787 789 788 789 788 815 819 799 796 789 771 781 779 781 790 793 795 802 812 818
794 791 789 787 786 786 786 785 785 784 784 784 784 785 785 785 784 781 771 777 782 786 787 789 790 786 795 798 799 807 822 806 783 775 779 776 779 782 793 798 806 805 808 814 819
793 790 788 786 784 784 784 783 783 783 783 783 784 785 785 784 784 770 766 776 783 785 789 793 794 788 801 803 804 807 818 787 777 773 769 776 780 778 797 811 802 807 810 815 820
791 788 785 784 782 782 782 781 781 781 782 782 783 784 784 785 794 768 770 779 784 788 791 792 790 796 804 806 803 815 798 795 786 776 773 779 779 791 793 800 803 806 809 815 820
790 786 783 781 780 780 780 779 779 780 780 781 783 783 784 787 779 770 775 780 784 787 793 799 797 797 809 801 805 811 806 796 792 771 777 778 789 792 801 803 808 812 815 818 820
788 784 781 779 779 778 778 777 777 778 779 780 782 783 784 793 769 771 776 779 782 782 786 788 788 796 808 803 813 803 812 806 795 795 784 791 797 793 810 808 812 814 817 819 818
786 782 779 777 777 777 776 776 776 776 778 780 781 782 785 778 770 773 779 779 778 774 774 774 794 799 808 812 803 801 815 812 799 797 799 791 813 810 807 810 816 817 818 819 817
784 780 777 775 775 775 775 775 775 777 778 780 781 782 781 767 770 773 778 781 779 774 775 782 788 803 813 804 807 817 824 838 806 805 801 802 836 810 807 811 818 818 817 816 816
783 779 776 774 774 774 775 775 776 777 779 780 783 783 778 766 766 769 771 774 778 782 786 790 794 805 809 823 831 826 843 840 828 803 806 809 828 809 805 810 816 818 817 815 814
782 778 776 774 774 775 776 777 777 779 780 781 783 788 765 761 760 763 767 768 778 785 794 799 806 818 820 815 844 826 829 826 836 813 809 818 814 807 804 808 811 814 814 813 811
782 778 776 775 775 777 778 778 782 784 780 775 771 768 755 753 756 758 762 765 771 782 810 806 819 822 799 800 796 799 816 831 821 810 819 820 811 811 806 807 809 811 812 811 808
781 778 777 776 777 777 777 777 770 771 779 758 763 761 753 757 765 756 758 772 774 793 799 815 815 784 782 790 794 808 821 840 826 812 816 814 820 814 809 805 802 806 808 805 803
781 778 777 777 777 778 776 769 767 769 780 756 751 756 752 752 763 759 755 763 773 786 789 805 787 774 780 790 800 808 817 829 826 814 811 809 825 816 806 800 799 796 796 800 799
781 778 777 777 780 776 772 764 766 768 799 773 758 748 744 744 761 744 748 759 771 786 782 790 769 776 785 792 790 807 780 802 813 825 850 825 854 819 807 801 797 793 792 794 796
782 778 777 777 776 775 766 763 763 767 833 753 753 733 735 752 749 748 744 754 774 776 782 787 777 785 786 778 782 798 781 788 801 822 834 832 852 823 805 808 799 788 788 788 787
781 778 775 775 773 767 763 757 758 803 824 765 746 750 754 752 753 747 749 748 750 770 773 777 761 770 764 758 769 780 800 805 809 831 856 850 844 833 819 802 790 784 784 786 780
777 771 770 770 766 763 763 760 804 820 763 767 764 755 761 767 763 760 767 773 786 797 802 781 773 761 758 780 777 785 810 850 850 852 850 839 839 827 796 780 779 786 784 785 784
769 761 762 760 762 765 766 781 812 781 774 752 755 759 772 763 765 764 774 785 771 777 802 810 818 766 761 768 779 788 799 838 862 856 850 828 841 816 780 763 767 768 767 772 782
764 760 759 754 759 768 780 814 804 777 758 759 756 772 774 761 763 766 775 771 765 768 798 808 798 751 747 748 754 774 799 795 842 852 850 844 827 798 781 779 779 775 769 773 779
765 761 757 754 756 765 791 804 781 756 749 755 770 764 781 770 772 772 773 755 759 750 754 777 804 762 750 740 745 758 771 811 839 872 871 845 844 839 801 796 788 787 781 777 779
767 768 755 755 759 773 798 792 765 743 745 758 762 762 762 767 767 771 762 744 738 743 748 768 785 781 761 769 774 781 785 794 809 826 851 852 839 800 797 788 787 783 779 779 782
781 783 757 757 779 785 791 769 758 749 739 745 751 747 758 761 763 761 761 744 731 725 760 757 788 799 780 751 747 759 773 782 818 825 831 832 831 771 773 773 774 781 780 777 782
795 784 756 757 789 790 772 764 754 762 755 752 748 742 746 755 765 759 752 725 722 729 751 755 789 811 796 772 755 759 758 769 776 798 826 841 829 769 768 767 769 776 780 779 779
796 796 766 760 766 770 775 772 771 751 750 747 755 739 752 759 756 760 753 734 725 722 731 737 774 784 801 786 769 767 764 759 779 808 813 810 797 777 771 772 773 777 779 781 784
794 793 786 793 778 779 778 775 774 780 761 754 755 746 756 763 762 760 754 750 732 733 729 741 769 762 765 761 754 759 759 757 768 772 791 787 788 776 773 773 770 772 775 779 786
801 802 793 792 781 774 776 782 782 786 787 773 766 749 750 759 756 759 755 755 747 739 743 748 772 761 766 761 761 765 752 751 743 759 764 779 780 770 769 766 770 772 775 783 787
809 805 803 793 786 785 781 770 766 767 751 749 743 751 753 743 735 734 737 737 738 750 757 760 770 786 789 775 771 783 768 759 755 754 761 781 765 770 772 766 764 769 771 778 782